2020-08-11 00:01:52 r, 21.01m,0000000000Hz,0001375053c,0000002.984s, 028.0C,00002191
2020-08-11 00:11:50 r, 20.95m,0000000000Hz,0001303576c,0000002.829s, 027.7C,00002191
2020-08-11 00:21:50 r, 20.88m,0000000001Hz,0001224663c,0000002.658s, 027.3C,00002191
2020-08-11 00:31:50 r, 20.81m,0000000000Hz,0001139613c,0000002.473s, 027.3C,00002191
2020-08-11 00:41:50 r, 20.75m,0000000001Hz,0001080050c,0000002.344s, 027.7C,00002191
2020-08-11 00:51:50 r, 20.70m,0000000001Hz,0001030929c,0000002.237s, 027.7C,00002191
2020-08-11 01:01:51 r, 20.66m,0000000000Hz,0000996363c,0000002.162s, 027.7C,00002191
2020-08-11 01:11:50 r, 20.62m,0000000001Hz,0000953326c,0000002.069s, 027.7C,00002191
2020-08-11 01:21:50 r, 20.57m,0000000001Hz,0000914864c,0000001.985s, 027.3C,00002191
2020-08-11 01:31:51 r, 20.53m,0000000001Hz,0000882952c,0000001.916s, 027.3C,00002191
2020-08-11 01:41:50 r, 20.50m,0000000000Hz,0000853732c,0000001.853s, 027.0C,00002191
2020-08-11 01:51:50 r, 20.45m,0000000001Hz,0000821688c,0000001.783s, 027.0C,00002191
2020-08-11 02:01:52 r, 20.41m,0000000001Hz,0000796853c,0000001.729s, 026.7C,00002191
2020-08-11 02:11:50 r, 20.38m,0000000001Hz,0000770992c,0000001.673s, 026.7C,00002191
2020-08-11 02:21:50 r, 20.34m,0000000001Hz,0000748862c,0000001.625s, 026.7C,00002191
2020-08-11 02:31:52 r, 20.29m,0000000001Hz,0000711156c,0000001.543s, 026.4C,00002191
2020-08-11 02:41:51 r, 20.24m,0000000001Hz,0000682580c,0000001.481s, 026.1C,00002191
2020-08-11 02:51:50 r, 20.20m,0000000000Hz,0000656446c,0000001.425s, 026.1C,00002191
2020-08-11 03:01:51 r, 20.15m,0000000001Hz,0000625653c,0000001.358s, 025.7C,00002191
2020-08-11 03:11:51 r, 20.12m,0000000001Hz,0000608428c,0000001.320s, 025.4C,00002191
2020-08-11 03:21:50 r, 20.05m,0000000001Hz,0000576938c,0000001.252s, 025.4C,00002191
2020-08-11 03:31:51 r, 20.02m,0000000001Hz,0000554808c,0000001.204s, 025.1C,00002191
2020-08-11 03:41:51 r, 19.96m,0000000001Hz,0000525952c,0000001.141s, 025.1C,00002191
2020-08-11 03:51:50 r, 19.92m,0000000001Hz,0000503951c,0000001.094s, 024.8C,00002191
2020-08-11 04:01:52 r, 19.87m,0000000001Hz,0000484030c,0000001.050s, 024.8C,00002191
2020-08-11 04:11:51 r, 19.75m,0000000001Hz,0000435009c,0000000.944s, 024.8C,00002191
2020-08-11 04:21:50 r, 19.68m,0000000001Hz,0000405136c,0000000.879s, 024.4C,00002191
2020-08-11 04:31:52 r, 19.54m,0000000002Hz,0000356992c,0000000.775s, 024.4C,00002191
2020-08-11 04:41:51 r, 19.32m,0000000002Hz,0000291617c,0000000.633s, 024.4C,00002191
2020-08-11 04:51:50 r, 19.39m,0000000002Hz,0000312321c,0000000.678s, 024.4C,00002191
2020-08-11 05:01:51 r, 18.72m,0000000002Hz,0000168122c,0000000.365s, 024.4C,00002191
2020-08-11 05:11:51 r, 17.62m,0000000008Hz,0000061174c,0000000.133s, 024.4C,00002191
2020-08-11 05:21:50 r, 16.28m,0000000026Hz,0000017853c,0000000.039s, 024.4C,00002191
2020-08-11 05:31:51 r, 14.59m,0000000122Hz,0000003745c,0000000.008s, 024.1C,00002191
2020-08-11 05:41:51 r, 12.75m,0000000674Hz,0000000000c,0000000.000s, 023.8C,00002191
2020-08-11 05:51:50 r, 10.92m,0000003637Hz,0000000000c,0000000.000s, 023.5C,00002191
2020-08-11 06:01:51 r, 09.32m,0000015761Hz,0000000000c,0000000.000s, 023.2C,00002191
2020-08-11 06:11:52 r, 08.12m,0000047781Hz,0000000000c,0000000.000s, 022.5C,00002191
2020-08-11 06:21:50 r, 07.27m,0000104040Hz,0000000000c,0000000.000s, 022.5C,00002191
2020-08-11 06:31:52 r, 06.68m,0000179781Hz,0000000000c,0000000.000s, 022.2C,00002191
2020-08-11 06:41:51 r, 06.27m,0000263258Hz,0000000000c,0000000.000s, 022.2C,00002191
2020-08-11 06:51:50 r, 05.87m,0000380912Hz,0000000000c,0000000.000s, 022.5C,00002191
2020-08-11 07:01:52 r, 00.00m,0000480660Hz,0000000000c,0000000.000s, 022.8C,00002191
2020-08-11 07:11:51 r, 00.00m,0000596893Hz,0000000000c,0000000.000s, 023.8C,00002191
2020-08-11 07:21:50 r, 00.00m,0000596721Hz,0000000000c,0000000.000s, 024.4C,00002191
2020-08-11 07:31:51 r, 00.00m,0000596649Hz,0000000000c,0000000.000s, 025.7C,00002191
2020-08-11 07:41:51 r, 00.00m,0000596549Hz,0000000000c,0000000.000s, 026.4C,00002191
2020-08-11 07:51:50 r, 00.00m,0000596442Hz,0000000000c,0000000.000s, 027.3C,00002191
2020-08-11 08:01:51 r, 00.00m,0000596282Hz,0000000000c,0000000.000s, 028.3C,00002191
2020-08-11 08:11:51 r, 00.00m,0000596146Hz,0000000000c,0000000.000s, 029.3C,00002191
2020-08-11 08:21:50 r, 00.00m,0000596109Hz,0000000000c,0000000.000s, 030.6C,00002191
2020-08-11 08:31:52 r, 00.00m,0000595999Hz,0000000000c,0000000.000s, 031.5C,00002191
2020-08-11 08:41:51 r, 00.00m,0000595804Hz,0000000000c,0000000.000s, 032.8C,00002191
2020-08-11 08:51:50 r, 00.00m,0000595666Hz,0000000000c,0000000.000s, 034.1C,00002191
2020-08-11 09:01:52 r, 00.00m,0000595458Hz,0000000000c,0000000.000s, 035.4C,00002191
2020-08-11 09:11:51 r, 00.00m,0000595219Hz,0000000000c,0000000.000s, 036.4C,00002191
2020-08-11 09:21:50 r, 00.00m,0000595202Hz,0000000000c,0000000.000s, 037.3C,00002191
2020-08-11 09:31:51 r, 00.00m,0000595190Hz,0000000000c,0000000.000s, 038.0C,00002191
2020-08-11 09:41:51 r, 00.00m,0000595122Hz,0000000000c,0000000.000s, 039.3C,00002191
2020-08-11 09:51:50 r, 00.00m,0000594931Hz,0000000000c,0000000.000s, 039.9C,00002191
2020-08-11 10:01:51 r, 00.00m,0000594772Hz,0000000000c,0000000.000s, 040.9C,00002191
2020-08-11 10:11:51 r, 00.00m,0000594695Hz,0000000000c,0000000.000s, 041.5C,00002191
2020-08-11 10:21:50 r, 00.00m,0000594584Hz,0000000000c,0000000.000s, 042.5C,00002191
2020-08-11 10:31:51 r, 00.00m,0000594483Hz,0000000000c,0000000.000s, 043.5C,00002191
2020-08-11 10:41:53 r, 00.00m,0000594401Hz,0000000000c,0000000.000s, 043.8C,00002191
2020-08-11 10:51:50 r, 00.00m,0000594181Hz,0000000000c,0000000.000s, 044.1C,00002191
2020-08-11 11:01:53 r, 00.00m,0000594153Hz,0000000000c,0000000.000s, 044.4C,00002191
2020-08-11 11:11:51 r, 00.00m,0000594238Hz,0000000000c,0000000.000s, 044.1C,00002191
2020-08-11 11:21:50 r, 00.00m,0000594655Hz,0000000000c,0000000.000s, 042.5C,00002191
2020-08-11 11:31:53 r, 00.00m,0000594880Hz,0000000000c,0000000.000s, 040.6C,00002191
2020-08-11 11:41:51 r, 00.00m,0000594952Hz,0000000000c,0000000.000s, 039.9C,00002191
2020-08-11 11:51:50 r, 00.00m,0000594843Hz,0000000000c,0000000.000s, 040.6C,00002191
2020-08-11 12:01:50 r, 00.00m,0000594612Hz,0000000000c,0000000.000s, 041.5C,00002191
2020-08-11 12:11:53 r, 00.00m,0000594490Hz,0000000000c,0000000.000s, 042.5C,00002191
2020-08-11 12:21:50 r, 00.00m,0000594479Hz,0000000000c,0000000.000s, 042.5C,00002191
2020-08-11 12:31:50 r, 00.00m,0000594326Hz,0000000000c,0000000.000s, 044.1C,00002191
2020-08-11 12:41:53 r, 00.00m,0000594007Hz,0000000000c,0000000.000s, 045.7C,00002191
2020-08-11 12:51:50 r, 00.00m,0000593647Hz,0000000000c,0000000.000s, 047.7C,00002191
2020-08-11 13:01:50 r, 00.00m,0000593455Hz,0000000000c,0000000.000s, 048.9C,00002191
2020-08-11 13:11:51 r, 00.00m,0000593439Hz,0000000000c,0000000.000s, 049.3C,00002191
2020-08-11 13:21:50 r, 00.00m,0000593307Hz,0000000000c,0000000.000s, 049.9C,00002191
2020-08-11 13:31:50 r, 00.00m,0000593180Hz,0000000000c,0000000.000s, 050.2C,00002191
2020-08-11 13:41:51 r, 00.00m,0000593078Hz,0000000000c,0000000.000s, 051.2C,00002191
2020-08-11 13:51:50 r, 00.00m,0000593006Hz,0000000000c,0000000.000s, 051.8C,00002191
2020-08-11 14:01:50 r, 00.00m,0000592845Hz,0000000000c,0000000.000s, 052.2C,00002191
2020-08-11 14:11:51 r, 00.00m,0000592834Hz,0000000000c,0000000.000s, 052.2C,00002191
2020-08-11 14:21:50 r, 00.00m,0000592800Hz,0000000000c,0000000.000s, 052.2C,00002191
2020-08-11 14:31:50 r, 00.00m,0000592777Hz,0000000000c,0000000.000s, 052.5C,00002191
2020-08-11 14:41:53 r, 00.00m,0000592767Hz,0000000000c,0000000.000s, 052.5C,00002191
2020-08-11 14:51:50 r, 00.00m,0000592808Hz,0000000000c,0000000.000s, 052.5C,00002191
2020-08-11 15:01:50 r, 00.00m,0000592698Hz,0000000000c,0000000.000s, 052.8C,00002191
2020-08-11 15:11:51 r, 00.00m,0000592687Hz,0000000000c,0000000.000s, 052.8C,00002191
2020-08-11 15:21:50 r, 00.00m,0000592800Hz,0000000000c,0000000.000s, 052.5C,00002191
2020-08-11 15:31:50 r, 00.00m,0000592809Hz,0000000000c,0000000.000s, 052.2C,00002191
2020-08-11 15:41:51 r, 00.00m,0000592816Hz,0000000000c,0000000.000s, 052.2C,00002191
2020-08-11 15:51:50 r, 00.00m,0000592788Hz,0000000000c,0000000.000s, 051.8C,00002191
2020-08-11 16:01:50 r, 00.00m,0000592921Hz,0000000000c,0000000.000s, 051.8C,00002191
2020-08-11 16:11:52 r, 00.00m,0000592917Hz,0000000000c,0000000.000s, 051.5C,00002191
2020-08-11 16:21:50 r, 00.00m,0000593022Hz,0000000000c,0000000.000s, 051.5C,00002191
2020-08-11 16:31:50 r, 00.00m,0000593035Hz,0000000000c,0000000.000s, 051.2C,00002191
2020-08-11 16:41:53 r, 00.00m,0000593113Hz,0000000000c,0000000.000s, 051.2C,00002191
2020-08-11 16:51:50 r, 00.00m,0000593289Hz,0000000000c,0000000.000s, 050.6C,00002191
2020-08-11 17:01:50 r, 00.00m,0000593306Hz,0000000000c,0000000.000s, 049.6C,00002191
2020-08-11 17:11:51 r, 00.00m,0000593398Hz,0000000000c,0000000.000s, 049.6C,00002191
2020-08-11 17:21:50 r, 00.00m,0000593491Hz,0000000000c,0000000.000s, 049.3C,00002191
2020-08-11 17:31:50 r, 00.00m,0000593444Hz,0000000000c,0000000.000s, 048.9C,00002191
2020-08-11 17:41:51 r, 00.00m,0000593632Hz,0000000000c,0000000.000s, 048.3C,00002191
2020-08-11 17:51:50 r, 00.00m,0000593697Hz,0000000000c,0000000.000s, 048.0C,00002191
2020-08-11 18:01:50 r, 00.00m,0000593699Hz,0000000000c,0000000.000s, 047.7C,00002191
2020-08-11 18:11:52 r, 00.00m,0000593728Hz,0000000000c,0000000.000s, 047.0C,00002191
2020-08-11 18:21:50 r, 00.00m,0000593816Hz,0000000000c,0000000.000s, 046.4C,00002191
2020-08-11 18:31:50 r, 00.00m,0000594010Hz,0000000000c,0000000.000s, 045.7C,00002191
2020-08-11 18:41:53 r, 00.00m,0000594109Hz,0000000000c,0000000.000s, 044.8C,00002191
2020-08-11 18:51:50 r, 00.00m,0000594116Hz,0000000000c,0000000.000s, 044.4C,00002191
2020-08-11 19:01:50 r, 00.00m,0000594331Hz,0000000000c,0000000.000s, 043.8C,00002191
2020-08-11 19:11:53 r, 00.00m,0000594344Hz,0000000000c,0000000.000s, 042.8C,00002191
2020-08-11 19:21:50 r, 00.00m,0000594480Hz,0000000000c,0000000.000s, 041.2C,00002191
2020-08-11 19:31:50 r, 00.00m,0000594834Hz,0000000000c,0000000.000s, 039.9C,00002191
2020-08-11 19:41:51 r, 00.00m,0000594965Hz,0000000000c,0000000.000s, 038.6C,00002191
2020-08-11 19:51:53 r, 00.00m,0000467382Hz,0000000000c,0000000.000s, 038.0C,00002191
2020-08-11 20:01:50 r, 00.00m,0000541712Hz,0000000000c,0000000.000s, 037.0C,00002191
2020-08-11 20:11:52 r, 05.98m,0000342619Hz,0000000000c,0000000.000s, 036.0C,00002191
2020-08-11 20:21:51 r, 06.68m,0000180029Hz,0000000000c,0000000.000s, 035.4C,00002191
2020-08-11 20:31:50 r, 06.58m,0000198463Hz,0000000000c,0000000.000s, 035.1C,00002191
2020-08-11 20:41:53 r, 07.04m,0000128934Hz,0000000000c,0000000.000s, 034.4C,00002191
2020-08-11 20:51:51 r, 07.84m,0000061827Hz,0000000000c,0000000.000s, 033.8C,00002191
2020-08-11 21:01:50 r, 08.86m,0000024066Hz,0000000000c,0000000.000s, 033.1C,00002191
2020-08-11 21:11:53 r, 10.31m,0000006363Hz,0000000000c,0000000.000s, 032.5C,00002191
2020-08-11 21:21:51 r, 12.37m,0000000955Hz,0000000000c,0000000.000s, 031.9C,00002191
2020-08-11 21:31:50 r, 14.24m,0000000170Hz,0000000000c,0000000.000s, 031.5C,00002191
2020-08-11 21:41:51 r, 16.07m,0000000032Hz,0000014716c,0000000.032s, 030.9C,00002191
2020-08-11 21:51:52 r, 17.47m,0000000009Hz,0000053645c,0000000.116s, 030.2C,00002191
2020-08-11 22:01:50 r, 18.65m,0000000003Hz,0000158526c,0000000.344s, 029.9C,00002191
2020-08-11 22:11:52 r, 19.63m,0000000001Hz,0000389200c,0000000.845s, 029.6C,00002191
2020-08-11 22:21:51 r, 20.34m,0000000001Hz,0000746243c,0000001.619s, 029.6C,00002191
2020-08-11 22:31:50 r, 20.75m,0000000001Hz,0001073563c,0000002.330s, 029.3C,00002191
2020-08-11 22:41:51 r, 20.91m,0000000000Hz,0001254365c,0000002.722s, 029.0C,00002191
2020-08-11 22:51:53 r, 20.97m,0000000001Hz,0001326194c,0000002.878s, 029.0C,00002191
2020-08-11 23:01:50 r, 20.98m,0000000000Hz,0001340324c,0000002.909s, 029.0C,00002191
2020-08-11 23:11:53 r, 20.91m,0000000000Hz,0001249330c,0000002.711s, 029.3C,00002191
2020-08-11 23:21:51 r, 20.79m,0000000000Hz,0001124545c,0000002.440s, 029.0C,00002191
2020-08-11 23:31:50 r, 20.85m,0000000000Hz,0001183794c,0000002.569s, 028.6C,00002191
2020-08-11 23:41:51 r, 20.49m,0000000001Hz,0000859349c,0000001.865s, 028.3C,00002191
2020-08-11 23:51:52 r, 20.52m,0000000000Hz,0000879658c,0000001.909s, 028.3C,00002191
